Terminal Aerodrome Forecast
Issued by NWS

Home | Current Version | Previous Version | Text Only | Print | Product List | Glossary On
Versions: 1 2 3 4 5 6 7 8 9 10 11 12 13 14 15 16 17 18 19 20 21 22 23 24 25 26 27 28 29 30 31 32
000
FTUS44 KOUN 211134
TAFWWR
TAF
KWWR 211134Z 2112/2212 36010KT P6SM VCTS BKN035CB
     FM211300 03013G20KT P6SM BKN040
     FM211900 04013G20KT P6SM FEW050 SCT250
     FM220000 08006KT P6SM SCT250=

USA.gov is the U.S. government's official web portal to all federal, state and local government web resources and services.